| time (UTC) | temp C | wind direction | speed KPH | gust KPH | rain 1hr cm | rain 24hr cm | rain mn cm | humidity % | barometer mb |
| 20260507134547 | 9 | 300 | 1.6 | 9.7 | 0.00 | 0.15 | 0.00 | 57 | 1012.6 |
| 20260507133043 | 8 | 348 | 1.6 | 6.4 | 0.00 | 0.15 | 0.00 | 56 | 1012.6 |
| 20260507131543 | 8 | 160 | 0.0 | 8.0 | 0.00 | 0.15 | 0.00 | 60 | 1012.8 |
| 20260507130058 | 7 | 0 | 0.0 | 4.8 | 0.00 | 0.15 | 0.00 | 59 | 1013.0 |
| 20260507124550 | 7 | 0 | 1.6 | 6.4 | 0.00 | 0.25 | 0.00 | 64 | 1013.3 |
| 20260507123103 | 7 | 340 | 0.0 | 8.0 | 0.00 | 0.25 | 0.00 | 66 | 1013.1 |
| 20260507121556 | 6 | 0 | 0.0 | 6.4 | 0.00 | 0.25 | 0.00 | 67 | 1013.0 |
| 20260507120048 | 6 | 340 | 0.0 | 8.0 | 0.00 | 0.25 | 0.00 | 68 | 1012.9 |
| 20260507114542 | 6 | 350 | 0.0 | 6.4 | 0.00 | 0.43 | 0.00 | 71 | 1012.7 |
| 20260507113042 | 5 | 0 | 1.6 | 4.8 | 0.00 | 0.43 | 0.00 | 73 | 1012.6 |
| 20260507111541 | 5 | 0 | 0.0 | 3.2 | 0.00 | 0.43 | 0.00 | 75 | 1012.6 |
| 20260507110047 | 4 | 0 | 0.0 | 1.6 | 0.00 | 0.43 | 0.00 | 75 | 1012.3 |
| 20260507104545 | 4 | 336 | 0.0 | 4.8 | 0.00 | 0.48 | 0.00 | 75 | 1012.2 |
| 20260507103044 | 4 | 0 | 0.0 | 0.0 | 0.00 | 0.48 | 0.00 | 74 | 1012.2 |
| 20260507101556 | 4 | 0 | 0.0 | 3.2 | 0.00 | 0.48 | 0.00 | 73 | 1012.1 |
| 20260507100053 | 4 | 0 | 0.0 | 4.8 | 0.00 | 0.48 | 0.00 | 72 | 1012.0 |
| 20260507094547 | 5 | 330 | 0.0 | 6.4 | 0.00 | 0.48 | 0.00 | 72 | 1012.0 |
| 20260507093046 | 5 | 340 | 0.0 | 4.8 | 0.00 | 0.48 | 0.00 | 72 | 1011.9 |
| 20260507091545 | 5 | 324 | 0.0 | 4.8 | 0.00 | 0.48 | 0.00 | 72 | 1012.1 |
| 20260507090050 | 5 | 0 | 0.0 | 3.2 | 0.00 | 0.48 | 0.00 | 70 | 1012.0 |
| 20260507084550 | 6 | 0 | 0.0 | 4.8 | 0.00 | 0.48 | 0.00 | 68 | 1011.9 |
| 20260507083104 | 6 | 0 | 0.0 | 1.6 | 0.00 | 0.48 | 0.00 | 66 | 1012.1 |
| 20260507081556 | 6 | 0 | 0.0 | 3.2 | 0.00 | 0.48 | 0.00 | 64 | 1012.2 |
| 20260507080056 | 7 | 325 | 1.6 | 6.4 | 0.00 | 0.48 | 0.00 | 62 | 1012.1 |
| 20260507074547 | 7 | 0 | 0.0 | 9.7 | 0.00 | 0.48 | 0.00 | 62 | 1012.2 |
| 20260507073057 | 7 | 319 | 0.0 | 6.4 | 0.00 | 0.48 | 0.00 | 62 | 1012.3 |
| 20260507071545 | 7 | 331 | 1.6 | 6.4 | 0.00 | 0.48 | 0.00 | 61 | 1012.2 |
| 20260507070047 | 7 | 0 | 0.0 | 6.4 | 0.00 | 0.48 | 0.00 | 61 | 1012.2 |
| 20260507064544 | 7 | 315 | 1.6 | 6.4 | 0.00 | 0.48 | 0.00 | 62 | 1012.3 |
| 20260507063048 | 7 | 0 | 1.6 | 9.7 | 0.00 | 0.48 | 0.00 | 61 | 1012.2 |
| 20260507061544 | 7 | 321 | 3.2 | 12.9 | 0.00 | 0.48 | 0.00 | 61 | 1012.5 |
| 20260507060042 | 8 | 0 | 0.0 | 4.8 | 0.00 | 0.48 | 0.00 | 60 | 1012.7 |
| 20260507054547 | 8 | 334 | 0.0 | 8.0 | 0.00 | 0.48 | 0.00 | 61 | 1012.7 |
| 20260507053044 | 8 | 324 | 3.2 | 8.0 | 0.00 | 0.48 | 0.00 | 60 | 1012.5 |
| 20260507051545 | 8 | 0 | 0.0 | 12.9 | 0.00 | 0.48 | 0.00 | 60 | 1012.7 |
| 20260507050041 | 8 | 0 | 3.2 | 12.9 | 0.00 | 0.48 | 0.00 | 60 | 1012.6 |
| 20260507044543 | 8 | 334 | 0.0 | 6.4 | 0.00 | 0.48 | 0.00 | 63 | 1012.7 |
| 20260507043048 | 8 | 329 | 1.6 | 6.4 | 0.00 | 0.48 | 0.00 | 64 | 1012.4 |
| 20260507041549 | 8 | 0 | 0.0 | 4.8 | 0.00 | 0.48 | 0.00 | 65 | 1012.3 |
| 20260507040048 | 9 | 0 | 1.6 | 12.9 | 0.00 | 0.48 | 0.00 | 64 | 1012.2 |
| 20260507034545 | 9 | 347 | 0.0 | 4.8 | 0.00 | 0.48 | 0.48 | 68 | 1012.4 |
| 20260507033042 | 9 | 0 | 0.0 | 4.8 | 0.00 | 0.48 | 0.48 | 69 | 1012.3 |
| 20260507031543 | 9 | 352 | 0.0 | 4.8 | 0.00 | 0.48 | 0.48 | 68 | 1012.2 |
| 20260507030039 | 10 | 322 | 4.8 | 12.9 | 0.00 | 0.48 | 0.48 | 69 | 1012.0 |
| 20260507024556 | 10 | 360 | 6.4 | 16.1 | 0.00 | 0.48 | 0.48 | 71 | 1011.9 |
| 20260507023045 | 10 | 335 | 8.0 | 20.9 | 0.00 | 0.48 | 0.48 | 75 | 1011.8 |
| 20260507021545 | 10 | 326 | 1.6 | 11.3 | 0.00 | 0.48 | 0.48 | 76 | 1011.6 |
| 20260507020104 | 10 | 5 | 1.6 | 6.4 | 0.00 | 0.48 | 0.48 | 77 | 1011.5 |
| 20260507014549 | 10 | 341 | 0.0 | 8.0 | 0.00 | 0.48 | 0.48 | 77 | 1011.9 |
| 20260507013045 | 10 | 0 | 0.0 | 4.8 | 0.00 | 0.48 | 0.48 | 77 | 1011.8 |
| 20260507011545 | 11 | 352 | 0.0 | 4.8 | 0.00 | 0.48 | 0.48 | 76 | 1012.0 |
| 20260507010045 | 11 | 352 | 0.0 | 9.7 | 0.00 | 0.48 | 0.48 | 76 | 1012.0 |
| 20260507004545 | 11 | 5 | 1.6 | 11.3 | 0.00 | 0.48 | 0.48 | 76 | 1011.9 |
| 20260507003043 | 11 | 338 | 3.2 | 16.1 | 0.00 | 0.48 | 0.48 | 77 | 1011.7 |
| 20260507001547 | 11 | 0 | 1.6 | 6.4 | 0.00 | 0.48 | 0.48 | 79 | 1011.3 |
| 20260507000049 | 11 | 323 | 0.0 | 16.1 | 0.00 | 0.48 | 0.48 | 79 | 1011.2 |
| 20260506234552 | 11 | 12 | 1.6 | 9.7 | 0.00 | 0.48 | 0.48 | 80 | 1010.9 |
| 20260506233045 | 11 | 0 | 0.0 | 9.7 | 0.00 | 0.48 | 0.48 | 80 | 1010.6 |
| 20260506231552 | 11 | 0 | 1.6 | 11.3 | 0.00 | 0.48 | 0.48 | 79 | 1010.3 |
| 20260506230052 | 11 | 325 | 4.8 | 16.1 | 0.00 | 0.48 | 0.48 | 79 | 1010.3 |
| 20260506224546 | 12 | 318 | 4.8 | 17.7 | 0.00 | 0.48 | 0.48 | 79 | 1010.4 |
| 20260506223053 | 12 | 338 | 4.8 | 14.5 | 0.00 | 0.48 | 0.48 | 79 | 1010.1 |
| 20260506221544 | 12 | 310 | 4.8 | 17.7 | 0.00 | 0.48 | 0.48 | 79 | 1009.7 |
| 20260506220045 | 12 | 319 | 6.4 | 24.1 | 0.00 | 0.48 | 0.48 | 78 | 1009.7 |
| 20260506214541 | 13 | 281 | 6.4 | 19.3 | 0.00 | 0.48 | 0.48 | 78 | 1009.5 |
| 20260506213059 | 13 | 294 | 4.8 | 19.3 | 0.00 | 0.48 | 0.48 | 78 | 1009.3 |
| 20260506211603 | 13 | 248 | 4.8 | 20.9 | 0.00 | 0.48 | 0.48 | 79 | 1008.9 |
| 20260506210045 | 13 | 288 | 4.8 | 20.9 | 0.00 | 0.48 | 0.48 | 79 | 1008.7 |
| 20260506204548 | 14 | 322 | 4.8 | 24.1 | 0.00 | 0.53 | 0.48 | 80 | 1008.4 |
| 20260506203046 | 14 | 0 | 8.0 | 19.3 | 0.00 | 0.53 | 0.48 | 81 | 1008.2 |
| 20260506201554 | 14 | 323 | 6.4 | 19.3 | 0.00 | 0.53 | 0.48 | 82 | 1008.2 |
| 20260506200050 | 14 | 259 | 8.0 | 19.3 | 0.00 | 0.53 | 0.48 | 83 | 1008.0 |
| 20260506194556 | 14 | 264 | 8.0 | 24.1 | 0.00 | 0.53 | 0.48 | 84 | 1007.8 |
| 20260506193041 | 15 | 296 | 8.0 | 25.7 | 0.00 | 0.53 | 0.48 | 84 | 1007.7 |
| 20260506191547 | 15 | 299 | 9.7 | 25.7 | 0.00 | 0.53 | 0.48 | 84 | 1007.4 |
| 20260506190043 | 15 | 333 | 6.4 | 14.5 | 0.00 | 0.53 | 0.48 | 86 | 1007.2 |
| 20260506184539 | 15 | 295 | 3.2 | 9.7 | 0.00 | 0.53 | 0.48 | 90 | 1007.2 |
| 20260506183057 | 15 | 305 | 1.6 | 8.0 | 0.03 | 0.53 | 0.48 | 91 | 1007.4 |
| 20260506181547 | 15 | 0 | 3.2 | 12.9 | 0.05 | 0.53 | 0.48 | 90 | 1007.3 |
| 20260506180049 | 15 | 254 | 4.8 | 12.9 | 0.08 | 0.53 | 0.48 | 91 | 1007.3 |
| 20260506174544 | 15 | 0 | 1.6 | 6.4 | 0.08 | 0.53 | 0.48 | 91 | 1007.2 |
| 20260506173052 | 15 | 0 | 0.0 | 6.4 | 0.05 | 0.51 | 0.46 | 91 | 1007.1 |
| 20260506171549 | 15 | 0 | 0.0 | 11.3 | 0.03 | 0.48 | 0.43 | 90 | 1007.1 |
| 20260506170104 | 15 | 221 | 1.6 | 11.3 | 0.00 | 0.46 | 0.41 | 90 | 1006.9 |
| 20260506164543 | 15 | 180 | 1.6 | 17.7 | 0.00 | 0.46 | 0.41 | 90 | 1006.8 |
| 20260506163057 | 15 | 174 | 1.6 | 12.9 | 0.03 | 0.46 | 0.41 | 91 | 1006.9 |
| 20260506161544 | 15 | 0 | 0.0 | 22.5 | 0.03 | 0.46 | 0.41 | 91 | 1007.0 |
| 20260506160043 | 14 | 0 | 3.2 | 14.5 | 0.03 | 0.46 | 0.41 | 91 | 1006.8 |
| 20260506154549 | 14 | 222 | 1.6 | 9.7 | 0.03 | 0.46 | 0.41 | 91 | 1007.0 |
| 20260506153044 | 14 | 180 | 0.0 | 14.5 | 0.00 | 0.43 | 0.38 | 91 | 1006.9 |
| 20260506151553 | 13 | 0 | 0.0 | 8.0 | 0.00 | 0.43 | 0.38 | 90 | 1006.8 |
| 20260506150045 | 13 | 0 | 0.0 | 6.4 | 0.00 | 0.43 | 0.38 | 91 | 1006.7 |
| 20260506144558 | 13 | 281 | 1.6 | 6.4 | 0.03 | 0.43 | 0.38 | 91 | 1006.5 |
| 20260506143045 | 13 | 0 | 1.6 | 11.3 | 0.03 | 0.43 | 0.38 | 91 | 1006.6 |
| 20260506141543 | 13 | 313 | 1.6 | 12.9 | 0.05 | 0.43 | 0.38 | 90 | 1006.4 |
| 20260506140045 | 13 | 0 | 1.6 | 11.3 | 0.05 | 0.43 | 0.38 | 90 | 1006.5 |